Miscellaneous Local Product
Issued by NWS Hastings, NE

Home | Current Version | Previous Version | Graphics & Text | Print | Product List | Glossary On
Versions: 1 2 3 4 5 6 7 8 9 10 11 12 13 14 15 16 17 18 19 20 21 22 23 24 25 26 27 28 29 30 31 32 33 34 35 36 37 38 39 40 41 42 43 44 45 46 47 48 49 50
000
AXUS43 KGID 300602
MISGRI

GID CWA HOURLY WEATHER ROUNDUP
NATIONAL WEATHER SERVICE HASTINGS NE
100 AM CDT TUE JUN 30 2015

NOTE: "FAIR" INDICATES FEW OR NO CLOUDS BELOW 12,000 FEET WITH NO
SIGNIFICANT WEATHER AND/OR OBSTRUCTIONS TO VISIBILITY.

...SOUTH CENTRAL NEBRASKA...

CITY           SKY/WX    TMP DP  RH WIND       PRES   REMARKS
GRAND ISLAND   CLEAR     69  61  75 CALM      29.99S
HASTINGS       CLEAR     70  62  76 CALM      29.99S
KEARNEY        CLEAR     66  61  82 CALM      30.00S
ORD            CLEAR     63  58  83 CALM      29.99R
YORK           CLEAR     66  63  88 CALM      29.98R
AURORA         CLEAR     69  63  81 S3        29.98S
LEXINGTON      CLEAR     65  62  88 CALM      30.03S
HOLDREGE       CLEAR     71  60  68 CALM      30.02R
HEBRON         CLEAR     67  63  86 CALM      29.97S

...NEBRASKA PANHANDLE...

CITY           SKY/WX    TMP DP  RH WIND       PRES   REMARKS
CHADRON        CLEAR     61  58  90 W5        30.06F
ALLIANCE       PTCLDY    58  56  93 W7        30.11S
SCOTTSBLUFF    CLEAR     67  56  67 CALM      30.12S
SIDNEY         CLEAR     64  57  78 S5        30.15S

...WESTERN AND NORTH CENTRAL NEBRASKA...

CITY           SKY/WX    TMP DP  RH WIND       PRES   REMARKS
VALENTINE      CLEAR     63  60  90 SW5       30.02S
AINSWORTH      CLEAR     66  60  83 CALM      30.02S
ONEILL         CLEAR     69  63  81 SW5       29.98S
BROKEN BOW     CLEAR     64  60  87 CALM      30.03R
IMPERIAL       CLEAR     69  56  62 SW3       30.08R
NORTH PLATTE   CLEAR     67  61  81 E3        30.06R
MCCOOK         CLEAR     74  58  57 S3        30.04R

...EASTERN NEBRASKA...

CITY           SKY/WX    TMP DP  RH WIND       PRES   REMARKS
NORFOLK        CLEAR     64  61  90 SW3       29.95S
SO SIOUX CITY  CLEAR     64  60  87 CALM      29.91S FOG
TEKAMAH        PTCLDY    66  60  81 SW6       29.91F
COLUMBUS       CLEAR     64  57  77 NW3       29.96R
ALBION         CLEAR     64  58  82 CALM      29.99R
OMAHA EPPLEY   CLOUDY    70  63  78 CALM      29.92R
OFFUTT AFB     CLEAR     65  63  91 SW2       29.91S
MILLARD        CLEAR     68  65  90 CALM      29.92S
LINCOLN        CLEAR     68  64  87 CALM      29.95S
NEBRASKA CITY  CLEAR     69  60  72 SW6       29.94R
BEATRICE       CLEAR     69  65  89 CALM      29.96S
FALLS CITY     PTCLDY    69  65  86 CALM      29.92F

...NORTHERN KANSAS...

CITY           SKY/WX    TMP DP  RH WIND       PRES   REMARKS
GOODLAND       CLEAR     67  57  70 SW8       30.11R
HILL CITY      CLEAR     67  55  65 S3        30.02R
NORTON         CLEAR     68  55  64 CALM      30.02S
PHILLIPSBURG   CLEAR     75  57  53 CALM      30.00F
SMITH CENTER   CLEAR     68  57  68 S5        30.00S
HAYS           CLEAR     72  52  49 SE9       30.01S
RUSSELL        CLEAR     72  58  61 SE9       29.99S
CONCORDIA      PTCLDY    71  59  65 S5        29.97S
SALINA         CLEAR     70  60  70 SW9       29.98R
TOPEKA         CLEAR     71  67  87 CALM      29.94S



USA.gov is the U.S. government's official web portal to all federal, state and local government web resources and services.